Location: Spring Creek
(38.2870°N, 100.2160°W)
Time: 23:45:24
(UTC+00:00)

IRS-1A Rocket - Pass Details

Date: 08 May 2021
Orbit: 851 x 931 km, 99.2° (Epoch: 21 June)

Event Time Altitude Azimuth Distance (km) Brightness Sun altitude
Exits shadow 02:34:30 - 153° (SSE) 2,685 6.3 -10.6°
Reaches altitude 10° 02:34:50 10° 153° (SSE) 2,554 6.2 -10.7°
Maximum altitude 02:40:28 65° 72° (ENE) 993 4.4 -11.6°
Drops below altitude 10° 02:46:15 10° 352° (N) 2,618 7.4 -12.6°
Sets 02:48:42 0° 350° (N) 3,573 8.2 -13.0°
